Date,TemperatureHighF,TemperatureAvgF,TemperatureLowF,DewpointHighF,DewpointAvgF,DewpointLowF,HumidityHigh,HumidityAvg,HumidityLow,PressureMaxIn,PressureMinIn,WindSpeedMaxMPH,WindSpeedAvgMPH,GustSpeedMaxMPH,PrecipitationSumIn
2013-2-1,24,24,23,14,13,13,68,65,62,29.92,29.91,1,0,1,0.00
2013-2-2,36,28,20,29,21,14,84,74,62,29.91,29.62,8,2,9,0.01
2013-2-3,50,38,27,36,28,20,92,70,39,29.72,29.54,8,4,15,0.09
2013-2-4,50,38,23,28,23,19,87,59,32,29.70,29.50,6,2,8,0.00
2013-2-5,63,49,40,40,35,26,82,60,36,29.58,29.48,9,3,13,0.00
2013-2-6,68,47,31,38,30,15,90,57,13,29.74,29.58,6,2,8,0.00
2013-2-7,57,45,40,44,35,29,85,68,34,29.70,29.50,4,1,4,0.00
2013-2-8,56,46,38,48,38,28,93,75,45,29.83,29.45,10,4,15,0.06
2013-2-9,60,45,28,28,21,14,81,43,20,29.90,29.77,9,3,11,0.19
2013-2-10,64,48,38,44,32,22,90,59,23,29.79,29.54,6,2,11,0.20
2013-2-11,58,52,44,53,43,29,93,75,45,29.67,29.53,10,4,15,0.08
2013-2-12,58,49,35,37,29,21,79,50,25,29.73,29.42,4,1,11,0.05
2013-2-13,48,43,38,45,38,32,91,83,72,29.54,29.25,6,1,14,0.26
2013-2-14,57,44,36,35,33,31,85,67,41,29.63,29.54,5,1,14,0.00
2013-2-15,58,42,33,39,33,28,87,72,47,29.66,29.57,5,2,14,0.01
2013-2-16,41,32,27,28,18,6,86,58,29,30.08,29.55,6,3,14,0.00
2013-2-17,45,32,20,14,10,1,66,43,17,30.21,30.08,6,2,13,0.00
2013-2-18,63,42,23,24,20,14,75,46,21,30.24,29.94,8,2,18,0.00
2013-2-19,55,45,34,42,26,0,88,53,13,30.13,29.87,10,4,22,0.25
2013-2-20,47,35,25,19,12,-1,70,42,15,30.18,30.10,4,1,9,0.00
2013-2-21,56,39,26,36,18,9,85,46,16,30.19,29.93,5,2,13,0.52
2013-2-22,59,48,39,46,42,35,91,79,60,30.02,29.93,5,2,14,0.06
2013-2-23,62,50,41,49,45,39,91,81,58,29.99,29.80,3,1,8,0.07
2013-2-24,60,44,31,39,26,15,91,53,19,30.03,29.88,4,1,9,0.00
2013-2-25,62,46,32,33,26,22,69,47,25,30.01,29.75,4,2,10,0.00
2013-2-26,64,50,42,49,41,33,89,71,51,29.75,29.41,10,4,25,0.47
2013-2-27,50,42,40,36,33,30,78,69,53,29.82,29.66,8,4,18,0.01
2013-2-28,43,38,35,31,27,22,82,65,47,29.95,29.77,6,3,16,0.00